Location: Waco, TX
(31.5480°N, 97.1670°W)
Time: 20:33:10
(UTC-05:00)

ISS - Pass Details

Date: 21 September 2018
Orbit: 403 x 408 km, 51.6° (Epoch: 25 September)

Event Time Altitude Azimuth Distance (km) Brightness Sun altitude
Rises 05:20:47 0° 304° (WNW) 2,319 - -25.1°
Reaches altitude 10° 05:23:02 10° 292° (WNW) 1,456 - -24.6°
Maximum altitude 05:25:54 29° 231° (SW) 773 - -24.0°
Drops below altitude 10° 05:28:45 10° 169° (SSE) 1,446 - -23.4°
Exits shadow 05:30:42 - 158° (SSE) 2,192 0.0 -23.0°
Sets 05:30:59 0° 157° (SSE) 2,300 0.1 -23.0°
